Time,TemperatureF,DewpointF,PressureIn,WindDirection,WindDirectionDegrees,WindSpeedMPH,WindSpeedGustMPH,Humidity,HourlyPrecipIn,Conditions,Clouds,dailyrainin,SoftwareType,DateUTC
2013-05-07 00:01:00,62.3,45.8,30.14,North,0,0.0,0.0,55,0.00,,,0.00,WUHU216HW,2013-05-07 07:01:00,
2013-05-07 00:06:00,62.3,46.4,30.14,North,0,0.0,0.0,56,0.00,,,0.00,WUHU216HW,2013-05-07 07:06:00,
2013-05-07 00:11:00,62.1,46.6,30.14,North,0,0.9,0.9,57,0.00,,,0.00,WUHU216HW,2013-05-07 07:11:00,
2013-05-07 00:16:00,61.9,47.0,30.15,North,0,0.4,0.9,58,0.00,,,0.00,WUHU216HW,2013-05-07 07:16:00,
2013-05-07 00:21:00,61.7,46.8,30.15,North,0,0.0,0.7,58,0.00,,,0.00,WUHU216HW,2013-05-07 07:21:00,
2013-05-07 00:26:00,61.6,46.6,30.15,North,0,0.0,0.0,58,0.00,,,0.00,WUHU216HW,2013-05-07 07:26:00,
2013-05-07 00:31:00,61.4,46.5,30.15,North,0,0.0,0.0,58,0.00,,,0.00,WUHU216HW,2013-05-07 07:31:00,
2013-05-07 00:36:00,61.2,46.4,30.15,North,0,0.0,0.0,58,0.00,,,0.00,WUHU216HW,2013-05-07 07:36:00,
2013-05-07 00:41:00,61.2,46.8,30.15,North,0,0.0,0.0,59,0.00,,,0.00,WUHU216HW,2013-05-07 07:41:00,
2013-05-07 00:46:00,61.0,46.6,30.15,North,0,0.0,0.0,59,0.00,,,0.00,WUHU216HW,2013-05-07 07:46:00,
2013-05-07 00:51:00,60.8,46.0,30.16,North,0,0.0,0.0,58,0.00,,,0.00,WUHU216HW,2013-05-07 07:51:00,
2013-05-07 00:56:00,60.8,46.0,30.16,North,0,0.0,0.2,58,0.00,,,0.00,WUHU216HW,2013-05-07 07:56:00,
2013-05-07 01:01:00,60.8,46.5,30.16,North,0,0.0,0.2,59,0.00,,,0.00,WUHU216HW,2013-05-07 08:01:00,
2013-05-07 01:06:00,60.5,47.4,30.16,North,0,0.7,1.3,62,0.00,,,0.00,WUHU216HW,2013-05-07 08:06:00,
2013-05-07 01:11:00,60.1,47.1,30.16,North,0,0.7,1.3,62,0.00,,,0.00,WUHU216HW,2013-05-07 08:11:00,
2013-05-07 01:16:00,59.8,46.7,30.16,North,0,0.7,1.1,62,0.00,,,0.00,WUHU216HW,2013-05-07 08:16:00,
2013-05-07 01:21:00,59.8,46.7,30.16,North,0,0.0,0.7,62,0.00,,,0.00,WUHU216HW,2013-05-07 08:21:00,
2013-05-07 01:26:00,59.8,46.7,30.16,North,0,0.0,0.0,62,0.00,,,0.00,WUHU216HW,2013-05-07 08:26:00,
2013-05-07 01:31:00,59.9,46.9,30.16,North,0,0.0,0.0,62,0.00,,,0.00,WUHU216HW,2013-05-07 08:31:00,
2013-05-07 01:36:00,59.9,46.9,30.17,North,0,0.4,0.4,62,0.00,,,0.00,WUHU216HW,2013-05-07 08:36:00,
2013-05-07 01:41:00,59.9,46.9,30.16,North,0,0.0,0.4,62,0.00,,,0.00,WUHU216HW,2013-05-07 08:41:00,
2013-05-07 01:46:00,59.6,46.5,30.17,North,0,0.0,0.2,62,0.00,,,0.00,WUHU216HW,2013-05-07 08:46:00,
2013-05-07 01:51:00,59.4,46.8,30.17,North,0,0.0,0.0,63,0.00,,,0.00,WUHU216HW,2013-05-07 08:51:00,
2013-05-07 01:56:00,59.4,46.8,30.17,North,0,0.4,0.7,63,0.00,,,0.00,WUHU216HW,2013-05-07 08:56:00,
2013-05-07 02:01:00,59.2,47.0,30.17,North,0,0.0,0.7,64,0.00,,,0.00,WUHU216HW,2013-05-07 09:01:00,
2013-05-07 02:06:00,59.2,46.6,30.17,North,0,0.0,0.4,63,0.00,,,0.00,WUHU216HW,2013-05-07 09:06:00,
2013-05-07 02:11:00,59.2,46.6,30.17,North,0,0.0,0.0,63,0.00,,,0.00,WUHU216HW,2013-05-07 09:11:00,
2013-05-07 02:16:00,59.2,46.6,30.17,North,0,0.0,0.4,63,0.00,,,0.00,WUHU216HW,2013-05-07 09:16:00,
2013-05-07 02:21:00,59.4,46.8,30.17,North,0,0.0,0.4,63,0.00,,,0.00,WUHU216HW,2013-05-07 09:21:00,
2013-05-07 02:26:00,59.6,46.5,30.17,North,0,0.0,0.0,62,0.00,,,0.00,WUHU216HW,2013-05-07 09:26:00,
2013-05-07 02:31:00,59.4,46.4,30.17,North,0,0.0,0.0,62,0.00,,,0.00,WUHU216HW,2013-05-07 09:31:00,
2013-05-07 02:36:00,59.2,46.6,30.17,North,0,0.0,0.2,63,0.00,,,0.00,WUHU216HW,2013-05-07 09:36:00,
2013-05-07 02:41:00,58.9,46.3,30.18,North,0,0.0,0.2,63,0.00,,,0.00,WUHU216HW,2013-05-07 09:41:00,
2013-05-07 02:46:00,58.9,46.7,30.18,North,0,0.0,0.0,64,0.00,,,0.00,WUHU216HW,2013-05-07 09:46:00,
2013-05-07 02:51:00,58.9,46.7,30.18,North,0,0.0,0.0,64,0.00,,,0.00,WUHU216HW,2013-05-07 09:51:00,
2013-05-07 02:56:00,58.9,46.7,30.18,North,0,0.2,0.4,64,0.00,,,0.00,WUHU216HW,2013-05-07 09:56:00,
2013-05-07 03:01:00,58.7,46.9,30.19,NNE,23,0.4,0.9,65,0.00,,,0.00,WUHU216HW,2013-05-07 10:01:00,
2013-05-07 03:06:00,58.7,46.9,30.19,ESE,113,0.2,0.9,65,0.00,,,0.00,WUHU216HW,2013-05-07 10:06:00,
2013-05-07 03:11:00,58.7,46.9,30.19,SSE,158,0.0,0.7,65,0.00,,,0.00,WUHU216HW,2013-05-07 10:11:00,
2013-05-07 03:15:00,58.9,47.5,30.19,SW,225,3.1,3.1,66,0.00,,,0.00,WUHU216HW,2013-05-07 10:15:00,
2013-05-07 03:21:00,58.7,47.7,30.19,South,180,1.6,3.6,67,0.00,,,0.00,WUHU216HW,2013-05-07 10:21:00,
2013-05-07 03:26:00,58.7,47.7,30.20,SSW,203,0.0,3.6,67,0.00,,,0.00,WUHU216HW,2013-05-07 10:26:00,
2013-05-07 03:31:00,58.5,48.0,30.20,SSE,158,0.9,1.1,68,0.00,,,0.00,WUHU216HW,2013-05-07 10:31:00,
2013-05-07 03:36:00,58.3,48.2,30.20,SSW,203,2.5,2.5,69,0.00,,,0.00,WUHU216HW,2013-05-07 10:36:00,
2013-05-07 03:41:00,58.3,49.0,30.20,SSW,203,1.3,2.5,71,0.00,,,0.00,WUHU216HW,2013-05-07 10:41:00,
2013-05-07 03:46:00,58.3,49.0,30.20,SSW,203,1.3,2.5,71,0.00,,,0.00,WUHU216HW,2013-05-07 10:46:00,
2013-05-07 03:51:00,58.1,48.0,30.20,SSE,158,1.1,2.5,69,0.00,,,0.00,WUHU216HW,2013-05-07 10:51:00,
2013-05-07 03:56:00,58.1,49.5,30.20,SW,225,2.5,2.5,73,0.00,,,0.00,WUHU216HW,2013-05-07 10:56:00,
2013-05-07 04:01:00,58.0,49.7,30.21,SW,225,6.0,6.0,74,0.00,,,0.00,WUHU216HW,2013-05-07 11:01:00,
2013-05-07 04:06:00,57.8,48.8,30.21,SW,225,0.9,6.0,72,0.00,,,0.00,WUHU216HW,2013-05-07 11:06:00,
2013-05-07 04:10:00,58.0,48.6,30.21,South,180,0.9,3.8,71,0.00,,,0.00,WUHU216HW,2013-05-07 11:10:00,
2013-05-07 04:16:00,57.8,48.8,30.21,SSE,158,1.1,3.4,72,0.00,,,0.00,WUHU216HW,2013-05-07 11:16:00,
2013-05-07 04:20:00,57.6,49.0,30.22,SW,225,2.9,2.9,73,0.00,,,0.00,WUHU216HW,2013-05-07 11:20:00,
2013-05-07 04:25:00,57.2,49.7,30.22,SSE,158,1.1,2.9,76,0.00,,,0.00,WUHU216HW,2013-05-07 11:25:00,
2013-05-07 04:30:00,56.7,48.4,30.22,WSW,248,0.9,4.0,74,0.00,,,0.00,WUHU216HW,2013-05-07 11:30:00,
2013-05-07 04:35:00,56.9,49.0,30.22,WSW,248,2.7,4.0,75,0.00,,,0.00,WUHU216HW,2013-05-07 11:35:00,
2013-05-07 04:40:00,56.5,48.6,30.22,SE,135,0.9,3.1,75,0.00,,,0.00,WUHU216HW,2013-05-07 11:40:00,
2013-05-07 04:45:00,56.2,48.3,30.23,WSW,248,1.6,3.1,75,0.00,,,0.00,WUHU216HW,2013-05-07 11:45:00,
2013-05-07 04:50:00,55.8,48.3,30.23,SSW,203,1.1,6.3,76,0.00,,,0.00,WUHU216HW,2013-05-07 11:50:00,
2013-05-07 04:55:00,55.4,47.6,30.23,SSW,203,0.0,6.3,75,0.00,,,0.00,WUHU216HW,2013-05-07 11:55:00,
2013-05-07 05:00:00,55.6,47.8,30.23,WSW,248,0.4,3.4,75,0.00,,,0.00,WUHU216HW,2013-05-07 12:00:00,
2013-05-07 05:05:00,55.6,47.8,30.23,WSW,248,0.4,0.4,75,0.00,,,0.00,WUHU216HW,2013-05-07 12:05:00,
2013-05-07 05:12:00,55.1,48.3,30.24,SW,225,2.0,2.0,78,0.00,,,0.00,WUHU216HW,2013-05-07 12:12:00,
2013-05-07 05:17:00,54.9,47.8,30.24,SE,135,0.0,2.5,77,0.00,,,0.00,WUHU216HW,2013-05-07 12:17:00,
2013-05-07 05:22:00,54.7,48.3,30.24,SW,225,0.9,2.5,79,0.00,,,0.00,WUHU216HW,2013-05-07 12:22:00,
2013-05-07 05:27:00,54.4,47.6,30.24,WSW,248,1.8,2.0,78,0.00,,,0.00,WUHU216HW,2013-05-07 12:27:00,
2013-05-07 05:32:00,54.7,48.0,30.24,NNE,23,1.3,2.2,78,0.00,,,0.00,WUHU216HW,2013-05-07 12:32:00,
2013-05-07 05:37:00,56.0,48.8,30.24,South,180,1.1,2.2,77,0.00,,,0.00,WUHU216HW,2013-05-07 12:37:00,
2013-05-07 05:42:00,57.2,49.3,30.23,ESE,113,2.0,2.2,75,0.00,,,0.00,WUHU216HW,2013-05-07 12:42:00,
2013-05-07 05:47:00,57.2,49.3,30.24,SSW,203,3.1,5.1,75,0.00,,,0.00,WUHU216HW,2013-05-07 12:47:00,
2013-05-07 05:52:00,56.2,48.0,30.24,WSW,248,1.1,5.1,74,0.00,,,0.00,WUHU216HW,2013-05-07 12:52:00,
2013-05-07 05:57:00,55.4,47.6,30.24,South,180,2.0,2.0,75,0.00,,,0.00,WUHU216HW,2013-05-07 12:57:00,
2013-05-07 06:02:00,54.7,48.0,30.24,WSW,248,1.8,4.7,78,0.00,,,0.00,WUHU216HW,2013-05-07 13:02:00,
2013-05-07 06:07:00,54.2,47.8,30.25,SSW,203,1.8,4.7,79,0.00,,,0.00,WUHU216HW,2013-05-07 13:07:00,
2013-05-07 06:12:00,53.8,48.5,30.25,SSE,158,3.4,4.9,82,0.00,,,0.00,WUHU216HW,2013-05-07 13:12:00,
2013-05-07 06:17:00,53.6,48.0,30.25,SSE,158,4.7,6.3,81,0.00,,,0.00,WUHU216HW,2013-05-07 13:17:00,
2013-05-07 06:22:00,53.6,48.3,30.25,SW,225,3.1,6.5,82,0.00,,,0.00,WUHU216HW,2013-05-07 13:22:00,
2013-05-07 06:27:00,53.8,48.5,30.25,SW,225,1.6,6.5,82,0.00,,,0.00,WUHU216HW,2013-05-07 13:27:00,
2013-05-07 06:32:00,54.0,48.3,30.25,SSW,203,1.1,4.0,81,0.00,,,0.00,WUHU216HW,2013-05-07 13:32:00,
2013-05-07 06:37:00,54.2,48.2,30.25,ESE,113,0.7,4.0,80,0.00,,,0.00,WUHU216HW,2013-05-07 13:37:00,
2013-05-07 06:42:00,54.2,48.8,30.25,WSW,248,8.5,8.5,82,0.00,,,0.00,WUHU216HW,2013-05-07 13:42:00,
2013-05-07 06:47:00,54.0,48.3,30.25,SE,135,2.5,8.5,81,0.00,,,0.00,WUHU216HW,2013-05-07 13:47:00,
2013-05-07 06:52:00,53.8,47.9,30.26,SSW,203,1.6,4.7,80,0.00,,,0.00,WUHU216HW,2013-05-07 13:52:00,
2013-05-07 06:57:00,53.8,48.5,30.26,SW,225,2.7,4.7,82,0.00,,,0.00,WUHU216HW,2013-05-07 13:57:00,
2013-05-07 07:02:00,53.6,47.7,30.26,WSW,248,1.8,4.7,80,0.00,,,0.00,WUHU216HW,2013-05-07 14:02:00,
2013-05-07 07:07:00,53.6,48.3,30.26,SW,225,0.4,5.1,82,0.00,,,0.00,WUHU216HW,2013-05-07 14:07:00,
2013-05-07 07:12:00,53.6,48.3,30.27,SE,135,4.0,5.1,82,0.00,,,0.00,WUHU216HW,2013-05-07 14:12:00,
2013-05-07 07:17:00,53.5,47.5,30.27,SW,225,1.1,4.3,80,0.00,,,0.00,WUHU216HW,2013-05-07 14:17:00,
2013-05-07 07:22:00,53.6,47.7,30.27,SW,225,1.1,4.3,80,0.00,,,0.00,WUHU216HW,2013-05-07 14:22:00,
2013-05-07 07:27:00,53.8,47.9,30.27,WSW,248,1.3,2.5,80,0.00,,,0.00,WUHU216HW,2013-05-07 14:27:00,
2013-05-07 07:32:00,53.8,48.2,30.27,SSW,203,3.8,3.8,81,0.00,,,0.00,WUHU216HW,2013-05-07 14:32:00,
2013-05-07 07:37:00,53.6,48.0,30.27,South,180,0.7,3.8,81,0.00,,,0.00,WUHU216HW,2013-05-07 14:37:00,
2013-05-07 07:42:00,53.8,48.2,30.27,SW,225,4.0,5.8,81,0.00,,,0.00,WUHU216HW,2013-05-07 14:42:00,
2013-05-07 07:47:00,53.8,47.9,30.27,WSW,248,2.2,5.8,80,0.00,,,0.00,WUHU216HW,2013-05-07 14:47:00,
2013-05-07 07:52:00,54.0,48.1,30.27,SW,225,1.8,2.7,80,0.00,,,0.00,WUHU216HW,2013-05-07 14:52:00,
2013-05-07 07:57:00,54.4,48.3,30.27,SSW,203,2.9,4.0,80,0.00,,,0.00,WUHU216HW,2013-05-07 14:57:00,
2013-05-07 08:02:00,54.4,48.0,30.27,ESE,113,1.8,4.0,79,0.00,,,0.00,WUHU216HW,2013-05-07 15:02:00,
2013-05-07 08:07:00,54.4,48.3,30.28,South,180,2.7,4.0,80,0.00,,,0.00,WUHU216HW,2013-05-07 15:07:00,
2013-05-07 08:12:00,54.4,48.3,30.27,SW,225,2.5,6.0,80,0.00,,,0.00,WUHU216HW,2013-05-07 15:12:00,
2013-05-07 08:17:00,54.2,48.2,30.28,SSE,158,1.1,6.3,80,0.00,,,0.00,WUHU216HW,2013-05-07 15:17:00,
2013-05-07 08:22:00,54.4,48.0,30.28,SW,225,1.6,6.3,79,0.00,,,0.00,WUHU216HW,2013-05-07 15:22:00,
2013-05-07 08:27:00,54.5,48.2,30.28,SSW,203,1.6,4.0,79,0.00,,,0.00,WUHU216HW,2013-05-07 15:27:00,
2013-05-07 08:32:00,54.7,48.3,30.28,SW,225,1.6,3.4,79,0.00,,,0.00,WUHU216HW,2013-05-07 15:32:00,
2013-05-07 08:37:00,54.7,48.3,30.28,SW,225,0.4,2.5,79,0.00,,,0.00,WUHU216HW,2013-05-07 15:37:00,
2013-05-07 08:42:00,54.9,48.5,30.28,SW,225,1.8,4.3,79,0.00,,,0.00,WUHU216HW,2013-05-07 15:42:00,
2013-05-07 08:47:00,55.1,48.3,30.28,SSE,158,1.3,4.7,78,0.00,,,0.00,WUHU216HW,2013-05-07 15:47:00,
2013-05-07 08:52:00,55.1,48.3,30.28,WSW,248,4.0,4.7,78,0.00,,,0.00,WUHU216HW,2013-05-07 15:52:00,
2013-05-07 08:57:00,55.3,48.5,30.29,SW,225,1.6,4.0,78,0.00,,,0.00,WUHU216HW,2013-05-07 15:57:00,
2013-05-07 09:02:00,55.6,49.1,30.29,WSW,248,3.4,4.0,79,0.00,,,0.00,WUHU216HW,2013-05-07 16:02:00,
2013-05-07 09:07:00,55.8,49.0,30.28,SSE,158,2.5,4.0,78,0.00,,,0.00,WUHU216HW,2013-05-07 16:07:00,
2013-05-07 09:12:00,55.8,49.0,30.29,South,180,1.3,4.0,78,0.00,,,0.00,WUHU216HW,2013-05-07 16:12:00,
2013-05-07 09:17:00,55.8,48.6,30.29,West,270,2.5,4.7,77,0.00,,,0.00,WUHU216HW,2013-05-07 16:17:00,
2013-05-07 09:21:00,55.8,48.6,30.29,SSW,203,1.1,4.7,77,0.00,,,0.00,WUHU216HW,2013-05-07 16:21:00,
2013-05-07 09:27:00,56.0,48.8,30.29,WSW,248,2.5,3.4,77,0.00,,,0.00,WUHU216HW,2013-05-07 16:27:00,
2013-05-07 09:31:00,56.0,49.1,30.29,WSW,248,5.8,5.8,78,0.00,,,0.00,WUHU216HW,2013-05-07 16:31:00,
2013-05-07 09:36:00,55.8,49.0,30.29,West,270,2.2,6.3,78,0.00,,,0.00,WUHU216HW,2013-05-07 16:36:00,
2013-05-07 09:41:00,55.8,49.0,30.29,SSE,158,2.5,6.3,78,0.00,,,0.00,WUHU216HW,2013-05-07 16:41:00,
2013-05-07 09:46:00,55.8,48.6,30.29,South,180,0.2,5.1,77,0.00,,,0.00,WUHU216HW,2013-05-07 16:46:00,
2013-05-07 09:51:00,56.0,48.8,30.29,South,180,1.8,5.1,77,0.00,,,0.00,WUHU216HW,2013-05-07 16:51:00,
2013-05-07 09:56:00,56.2,49.0,30.29,SSE,158,1.1,5.1,77,0.00,,,0.00,WUHU216HW,2013-05-07 16:56:00,
2013-05-07 10:01:00,56.5,49.3,30.29,WSW,248,3.4,3.4,77,0.00,,,0.00,WUHU216HW,2013-05-07 17:01:00,
2013-05-07 10:06:00,56.5,49.3,30.29,SSW,203,2.5,3.4,77,0.00,,,0.00,WUHU216HW,2013-05-07 17:06:00,
2013-05-07 10:11:00,56.5,49.3,30.29,SW,225,4.0,4.0,77,0.00,,,0.00,WUHU216HW,2013-05-07 17:11:00,
2013-05-07 10:16:00,56.7,49.5,30.29,WSW,248,3.1,4.0,77,0.00,,,0.00,WUHU216HW,2013-05-07 17:16:00,
2013-05-07 10:21:00,57.1,49.5,30.29,SSW,203,1.8,4.0,76,0.00,,,0.00,WUHU216HW,2013-05-07 17:21:00,
2013-05-07 10:26:00,57.6,50.0,30.28,SSW,203,1.8,1.8,76,0.00,,,0.00,WUHU216HW,2013-05-07 17:26:00,
2013-05-07 10:31:00,57.8,49.9,30.28,South,180,2.2,6.3,75,0.00,,,0.00,WUHU216HW,2013-05-07 17:31:00,
2013-05-07 10:36:00,58.0,50.0,30.28,South,180,2.5,6.3,75,0.00,,,0.00,WUHU216HW,2013-05-07 17:36:00,
2013-05-07 10:41:00,58.0,49.7,30.28,SSE,158,1.8,2.5,74,0.00,,,0.00,WUHU216HW,2013-05-07 17:41:00,
2013-05-07 10:46:00,58.3,50.0,30.29,WSW,248,1.1,3.4,74,0.00,,,0.00,WUHU216HW,2013-05-07 17:46:00,
2013-05-07 10:51:00,58.3,50.0,30.29,SW,225,2.9,6.3,74,0.00,,,0.00,WUHU216HW,2013-05-07 17:51:00,
2013-05-07 10:56:00,58.1,49.5,30.29,SSW,203,1.3,6.3,73,0.00,,,0.00,WUHU216HW,2013-05-07 17:56:00,
2013-05-07 11:01:00,58.7,50.0,30.28,SSW,203,1.6,4.5,73,0.00,,,0.00,WUHU216HW,2013-05-07 18:01:00,
2013-05-07 11:06:00,59.2,50.6,30.28,SSW,203,2.9,3.4,73,0.00,,,0.00,WUHU216HW,2013-05-07 18:06:00,
2013-05-07 11:11:00,59.9,51.3,30.28,SE,135,1.6,4.0,73,0.00,,,0.00,WUHU216HW,2013-05-07 18:11:00,
2013-05-07 11:16:00,60.1,50.8,30.28,SW,225,2.2,4.0,71,0.00,,,0.00,WUHU216HW,2013-05-07 18:16:00,
2013-05-07 11:21:00,60.1,50.8,30.28,SW,225,0.4,2.2,71,0.00,,,0.00,WUHU216HW,2013-05-07 18:21:00,
2013-05-07 11:26:00,60.1,50.8,30.28,East,90,1.8,4.5,71,0.00,,,0.00,WUHU216HW,2013-05-07 18:26:00,
2013-05-07 11:31:00,60.5,51.1,30.28,SSE,158,3.1,4.5,71,0.00,,,0.00,WUHU216HW,2013-05-07 18:31:00,
2013-05-07 11:36:00,61.2,51.5,30.28,South,180,1.1,3.1,70,0.00,,,0.00,WUHU216HW,2013-05-07 18:36:00,
2013-05-07 11:41:00,61.6,51.4,30.28,SSW,203,4.0,6.0,69,0.00,,,0.00,WUHU216HW,2013-05-07 18:41:00,
2013-05-07 11:46:00,61.6,51.4,30.28,NW,315,0.7,6.0,69,0.00,,,0.00,WUHU216HW,2013-05-07 18:46:00,
2013-05-07 11:51:00,61.6,51.4,30.28,South,180,4.0,4.5,69,0.00,,,0.00,WUHU216HW,2013-05-07 18:51:00,
2013-05-07 11:56:00,61.9,51.3,30.28,SSE,158,1.6,4.5,68,0.00,,,0.00,WUHU216HW,2013-05-07 18:56:00,
2013-05-07 12:01:00,62.3,51.6,30.28,SSW,203,3.4,4.0,68,0.00,,,0.00,WUHU216HW,2013-05-07 19:01:00,
2013-05-07 12:06:00,62.6,51.9,30.28,South,180,3.6,5.4,68,0.00,,,0.00,WUHU216HW,2013-05-07 19:06:00,
2013-05-07 12:11:00,62.8,51.3,30.28,SSE,158,4.0,5.4,66,0.00,,,0.00,WUHU216HW,2013-05-07 19:11:00,
2013-05-07 12:16:00,63.0,51.8,30.28,SSE,158,5.4,5.4,67,0.00,,,0.00,WUHU216HW,2013-05-07 19:16:00,
2013-05-07 12:21:00,63.5,51.9,30.28,South,180,2.5,5.4,66,0.00,,,0.00,WUHU216HW,2013-05-07 19:21:00,
2013-05-07 12:26:00,63.9,51.8,30.28,SW,225,4.7,5.1,65,0.00,,,0.00,WUHU216HW,2013-05-07 19:26:00,
2013-05-07 12:31:00,64.3,52.2,30.27,West,270,1.1,4.7,65,0.00,,,0.00,WUHU216HW,2013-05-07 19:31:00,
2013-05-07 12:36:00,65.0,52.5,30.27,SW,225,1.8,4.5,64,0.00,,,0.00,WUHU216HW,2013-05-07 19:36:00,
2013-05-07 12:41:00,65.5,53.0,30.27,SSE,158,2.2,2.5,64,0.00,,,0.00,WUHU216HW,2013-05-07 19:41:00,
2013-05-07 12:46:00,65.9,52.9,30.27,SSW,203,0.9,4.3,63,0.00,,,0.00,WUHU216HW,2013-05-07 19:46:00,
2013-05-07 12:51:00,66.2,52.5,30.27,ESE,113,2.7,5.4,61,0.00,,,0.00,WUHU216HW,2013-05-07 19:51:00,
2013-05-07 12:56:00,66.1,51.8,30.27,SSW,203,2.0,6.0,60,0.00,,,0.00,WUHU216HW,2013-05-07 19:56:00,
2013-05-07 13:01:00,66.1,52.3,30.27,South,180,1.8,6.9,61,0.00,,,0.00,WUHU216HW,2013-05-07 20:01:00,
2013-05-07 13:06:00,66.1,52.3,30.27,NW,315,0.4,6.9,61,0.00,,,0.00,WUHU216HW,2013-05-07 20:06:00,
2013-05-07 13:11:00,66.6,52.7,30.27,SSW,203,1.8,3.1,61,0.00,,,0.00,WUHU216HW,2013-05-07 20:11:00,
2013-05-07 13:16:00,67.0,52.7,30.27,SW,225,1.1,3.1,60,0.00,,,0.00,WUHU216HW,2013-05-07 20:16:00,
2013-05-07 13:21:00,67.5,53.2,30.27,SE,135,1.1,2.5,60,0.00,,,0.00,WUHU216HW,2013-05-07 20:21:00,
2013-05-07 13:26:00,67.7,52.8,30.27,SE,135,1.1,1.6,59,0.00,,,0.00,WUHU216HW,2013-05-07 20:26:00,
2013-05-07 13:31:00,68.0,52.7,30.27,South,180,2.5,4.0,58,0.00,,,0.00,WUHU216HW,2013-05-07 20:31:00,
2013-05-07 13:36:00,68.4,52.6,30.27,ESE,113,1.1,4.0,57,0.00,,,0.00,WUHU216HW,2013-05-07 20:36:00,
2013-05-07 13:41:00,68.8,52.9,30.27,SSE,158,1.6,2.7,57,0.00,,,0.00,WUHU216HW,2013-05-07 20:41:00,
2013-05-07 13:46:00,68.9,53.0,30.27,SSE,158,3.1,3.1,57,0.00,,,0.00,WUHU216HW,2013-05-07 20:46:00,
2013-05-07 13:51:00,69.3,52.4,30.27,NW,315,0.7,3.1,55,0.00,,,0.00,WUHU216HW,2013-05-07 20:51:00,
2013-05-07 13:56:00,68.6,51.8,30.27,South,180,1.8,2.5,55,0.00,,,0.00,WUHU216HW,2013-05-07 20:56:00,
2013-05-07 14:01:00,68.6,52.2,30.27,NNW,338,1.1,1.8,56,0.00,,,0.00,WUHU216HW,2013-05-07 21:01:00,
2013-05-07 14:06:00,69.1,52.2,30.27,SSW,203,2.5,4.5,55,0.00,,,0.00,WUHU216HW,2013-05-07 21:06:00,
2013-05-07 14:11:00,69.5,52.1,30.27,SSW,203,1.6,4.7,54,0.00,,,0.00,WUHU216HW,2013-05-07 21:11:00,
2013-05-07 14:16:00,69.7,52.3,30.26,South,180,2.0,6.3,54,0.00,,,0.00,WUHU216HW,2013-05-07 21:16:00,
2013-05-07 14:21:00,70.0,53.1,30.26,WSW,248,1.3,6.3,55,0.00,,,0.00,WUHU216HW,2013-05-07 21:21:00,
2013-05-07 14:26:00,70.0,52.6,30.26,SW,225,1.8,3.6,54,0.00,,,0.00,WUHU216HW,2013-05-07 21:26:00,
2013-05-07 14:31:00,70.0,52.1,30.26,SE,135,0.2,3.4,53,0.00,,,0.00,WUHU216HW,2013-05-07 21:31:00,
2013-05-07 14:36:00,70.2,53.3,30.26,SSW,203,2.9,4.7,55,0.00,,,0.00,WUHU216HW,2013-05-07 21:36:00,
2013-05-07 14:41:00,70.9,53.4,30.26,WSW,248,2.9,4.7,54,0.00,,,0.00,WUHU216HW,2013-05-07 21:41:00,
2013-05-07 14:46:00,71.1,53.0,30.26,South,180,1.6,5.1,53,0.00,,,0.00,WUHU216HW,2013-05-07 21:46:00,
2013-05-07 14:51:00,71.3,53.7,30.26,WSW,248,0.7,5.1,54,0.00,,,0.00,WUHU216HW,2013-05-07 21:51:00,
2013-05-07 14:56:00,70.9,52.4,30.26,South,180,1.8,4.7,52,0.00,,,0.00,WUHU216HW,2013-05-07 21:56:00,
2013-05-07 15:01:00,70.9,52.4,30.26,WSW,248,0.9,3.4,52,0.00,,,0.00,WUHU216HW,2013-05-07 22:01:00,
2013-05-07 15:06:00,71.1,53.0,30.25,WNW,293,1.3,4.3,53,0.00,,,0.00,WUHU216HW,2013-05-07 22:06:00,
2013-05-07 15:11:00,71.5,52.8,30.26,WSW,248,1.1,4.3,52,0.00,,,0.00,WUHU216HW,2013-05-07 22:11:00,
2013-05-07 15:16:00,71.6,52.6,30.25,SSE,158,0.7,3.1,51,0.00,,,0.00,WUHU216HW,2013-05-07 22:16:00,
2013-05-07 15:21:00,71.3,52.8,30.25,South,180,4.7,4.7,52,0.00,,,0.00,WUHU216HW,2013-05-07 22:21:00,
2013-05-07 15:26:00,71.3,52.8,30.25,South,180,0.7,4.7,52,0.00,,,0.00,WUHU216HW,2013-05-07 22:26:00,
2013-05-07 15:31:00,71.1,52.6,30.25,SSE,158,4.0,4.0,52,0.00,,,0.00,WUHU216HW,2013-05-07 22:31:00,
2013-05-07 15:36:00,71.6,52.0,30.25,SSW,203,4.5,4.5,50,0.00,,,0.00,WUHU216HW,2013-05-07 22:36:00,
2013-05-07 15:41:00,71.5,52.4,30.25,SW,225,3.8,4.5,51,0.00,,,0.00,WUHU216HW,2013-05-07 22:41:00,
2013-05-07 15:46:00,71.3,52.2,30.25,NW,315,1.1,3.8,51,0.00,,,0.00,WUHU216HW,2013-05-07 22:46:00,
2013-05-07 15:51:00,71.1,52.6,30.24,SSW,203,1.8,1.8,52,0.00,,,0.00,WUHU216HW,2013-05-07 22:51:00,
2013-05-07 15:56:00,71.1,52.6,30.25,SSW,203,3.4,4.0,52,0.00,,,0.00,WUHU216HW,2013-05-07 22:56:00,
2013-05-07 16:01:00,71.1,53.0,30.24,SW,225,3.4,4.0,53,0.00,,,0.00,WUHU216HW,2013-05-07 23:01:00,
2013-05-07 16:06:00,71.1,52.6,30.24,SE,135,1.8,3.6,52,0.00,,,0.00,WUHU216HW,2013-05-07 23:06:00,
2013-05-07 16:11:00,70.9,52.9,30.24,NNW,338,0.9,3.6,53,0.00,,,0.00,WUHU216HW,2013-05-07 23:11:00,
2013-05-07 16:16:00,70.7,52.8,30.24,North,0,0.9,2.0,53,0.00,,,0.00,WUHU216HW,2013-05-07 23:16:00,
2013-05-07 16:21:00,70.6,53.1,30.24,SW,225,1.1,3.1,54,0.00,,,0.00,WUHU216HW,2013-05-07 23:21:00,
2013-05-07 16:26:00,70.4,52.9,30.24,SW,225,0.2,4.0,54,0.00,,,0.00,WUHU216HW,2013-05-07 23:26:00,
2013-05-07 16:31:00,70.4,52.9,30.24,North,0,0.7,4.0,54,0.00,,,0.00,WUHU216HW,2013-05-07 23:31:00,
2013-05-07 16:36:00,70.2,52.7,30.24,NNE,23,0.0,2.5,54,0.00,,,0.00,WUHU216HW,2013-05-07 23:36:00,
2013-05-07 16:41:00,70.0,52.6,30.24,NW,315,1.1,2.5,54,0.00,,,0.00,WUHU216HW,2013-05-07 23:41:00,
2013-05-07 16:46:00,70.0,52.1,30.24,North,0,0.7,2.5,53,0.00,,,0.00,WUHU216HW,2013-05-07 23:46:00,
2013-05-07 16:51:00,70.0,52.1,30.24,NW,315,0.9,1.8,53,0.00,,,0.00,WUHU216HW,2013-05-07 23:51:00,
2013-05-07 16:56:00,69.8,51.9,30.24,ESE,113,0.7,3.6,53,0.00,,,0.00,WUHU216HW,2013-05-07 23:56:00,
2013-05-07 17:01:00,69.8,51.9,30.24,NNW,338,2.7,3.6,53,0.00,,,0.00,WUHU216HW,2013-05-08 00:01:00,
2013-05-07 17:06:00,70.0,52.1,30.25,North,0,0.4,2.7,53,0.00,,,0.00,WUHU216HW,2013-05-08 00:06:00,
2013-05-07 17:11:00,69.8,51.9,30.24,NNW,338,0.0,2.5,53,0.00,,,0.00,WUHU216HW,2013-05-08 00:11:00,
2013-05-07 17:16:00,69.7,51.8,30.24,North,0,1.1,2.5,53,0.00,,,0.00,WUHU216HW,2013-05-08 00:16:00,
2013-05-07 17:21:00,69.7,51.8,30.24,North,0,0.9,4.0,53,0.00,,,0.00,WUHU216HW,2013-05-08 00:21:00,
2013-05-07 17:26:00,69.8,51.9,30.25,WSW,248,1.6,2.9,53,0.00,,,0.00,WUHU216HW,2013-05-08 00:26:00,
2013-05-07 17:31:00,69.8,51.9,30.25,South,180,0.4,2.9,53,0.00,,,0.00,WUHU216HW,2013-05-08 00:31:00,
2013-05-07 17:36:00,70.0,52.1,30.24,North,0,0.2,2.9,53,0.00,,,0.00,WUHU216HW,2013-05-08 00:36:00,
2013-05-07 17:41:00,69.8,51.9,30.24,North,0,0.4,2.7,53,0.00,,,0.00,WUHU216HW,2013-05-08 00:41:00,
2013-05-07 17:46:00,69.5,51.6,30.24,South,180,4.7,4.7,53,0.00,,,0.00,WUHU216HW,2013-05-08 00:46:00,
2013-05-07 17:51:00,69.5,51.6,30.24,SSW,203,1.6,4.7,53,0.00,,,0.00,WUHU216HW,2013-05-08 00:51:00,
2013-05-07 17:56:00,69.7,52.3,30.24,WSW,248,0.0,2.9,54,0.00,,,0.00,WUHU216HW,2013-05-08 00:56:00,
2013-05-07 18:01:00,69.5,52.1,30.24,South,180,0.7,2.7,54,0.00,,,0.00,WUHU216HW,2013-05-08 01:01:00,
2013-05-07 18:06:00,69.5,52.1,30.24,NNW,338,0.4,2.5,54,0.00,,,0.00,WUHU216HW,2013-05-08 01:06:00,
2013-05-07 18:11:00,69.3,51.9,30.24,West,270,1.8,1.8,54,0.00,,,0.00,WUHU216HW,2013-05-08 01:11:00,
2013-05-07 18:16:00,69.3,51.9,30.24,SSE,158,1.8,2.0,54,0.00,,,0.00,WUHU216HW,2013-05-08 01:16:00,
2013-05-07 18:21:00,69.3,51.9,30.24,SW,225,2.2,2.2,54,0.00,,,0.00,WUHU216HW,2013-05-08 01:21:00,
2013-05-07 18:26:00,69.3,51.9,30.24,WSW,248,0.4,4.0,54,0.00,,,0.00,WUHU216HW,2013-05-08 01:26:00,
2013-05-07 18:31:00,69.5,52.1,30.24,SSW,203,0.0,4.0,54,0.00,,,0.00,WUHU216HW,2013-05-08 01:31:00,
2013-05-07 18:36:00,69.5,52.6,30.24,SW,225,1.6,1.6,55,0.00,,,0.00,WUHU216HW,2013-05-08 01:36:00,
2013-05-07 18:41:00,69.5,52.1,30.24,SW,225,2.2,3.4,54,0.00,,,0.00,WUHU216HW,2013-05-08 01:41:00,
2013-05-07 18:46:00,69.5,52.1,30.24,SSE,158,1.8,3.4,54,0.00,,,0.00,WUHU216HW,2013-05-08 01:46:00,
2013-05-07 18:51:00,69.5,52.1,30.24,WSW,248,0.4,2.7,54,0.00,,,0.00,WUHU216HW,2013-05-08 01:51:00,
2013-05-07 18:56:00,69.5,52.6,30.24,WSW,248,1.8,1.8,55,0.00,,,0.00,WUHU216HW,2013-05-08 01:56:00,
2013-05-07 19:01:00,69.5,52.6,30.24,SW,225,0.0,1.8,55,0.00,,,0.00,WUHU216HW,2013-05-08 02:01:00,
2013-05-07 19:06:00,69.3,51.9,30.24,NNW,338,0.4,1.8,54,0.00,,,0.00,WUHU216HW,2013-05-08 02:06:00,
2013-05-07 19:11:00,69.1,52.2,30.24,SW,225,1.1,1.3,55,0.00,,,0.00,WUHU216HW,2013-05-08 02:11:00,
2013-05-07 19:16:00,69.1,52.2,30.24,SSW,203,0.4,2.2,55,0.00,,,0.00,WUHU216HW,2013-05-08 02:16:00,
2013-05-07 19:21:00,69.1,52.2,30.24,WSW,248,0.4,2.2,55,0.00,,,0.00,WUHU216HW,2013-05-08 02:21:00,
2013-05-07 19:26:00,68.9,52.0,30.24,SW,225,0.0,1.1,55,0.00,,,0.00,WUHU216HW,2013-05-08 02:26:00,
2013-05-07 19:31:00,68.8,52.4,30.24,SSE,158,0.0,0.9,56,0.00,,,0.00,WUHU216HW,2013-05-08 02:31:00,
2013-05-07 19:36:00,68.8,52.4,30.24,South,180,0.9,0.9,56,0.00,,,0.00,WUHU216HW,2013-05-08 02:36:00,
2013-05-07 19:41:00,68.8,52.4,30.24,WSW,248,1.3,1.6,56,0.00,,,0.00,WUHU216HW,2013-05-08 02:41:00,
2013-05-07 19:46:00,68.8,52.4,30.24,SE,135,0.7,1.8,56,0.00,,,0.00,WUHU216HW,2013-05-08 02:46:00,
2013-05-07 19:51:00,68.6,52.2,30.24,SW,225,1.3,1.8,56,0.00,,,0.00,WUHU216HW,2013-05-08 02:51:00,
2013-05-07 19:56:00,68.6,52.2,30.24,South,180,0.0,1.6,56,0.00,,,0.00,WUHU216HW,2013-05-08 02:56:00,
2013-05-07 20:01:00,68.4,52.0,30.24,South,180,0.0,0.9,56,0.00,,,0.00,WUHU216HW,2013-05-08 03:01:00,
2013-05-07 20:06:00,68.0,52.2,30.25,WSW,248,0.4,1.1,57,0.00,,,0.00,WUHU216HW,2013-05-08 03:06:00,
2013-05-07 20:11:00,68.0,52.2,30.25,SSE,158,1.6,1.6,57,0.00,,,0.00,WUHU216HW,2013-05-08 03:11:00,
2013-05-07 20:16:00,67.7,52.4,30.25,SSE,158,0.2,1.6,58,0.00,,,0.00,WUHU216HW,2013-05-08 03:16:00,
2013-05-07 20:21:00,67.5,52.2,30.25,SSE,158,0.0,1.1,58,0.00,,,0.00,WUHU216HW,2013-05-08 03:21:00,
2013-05-07 20:26:00,67.3,52.5,30.25,SSE,158,0.0,0.4,59,0.00,,,0.00,WUHU216HW,2013-05-08 03:26:00,
2013-05-07 20:31:00,67.0,52.2,30.25,SW,225,0.7,0.7,59,0.00,,,0.00,WUHU216HW,2013-05-08 03:31:00,
2013-05-07 20:36:00,66.6,52.4,30.26,ESE,113,0.0,0.7,60,0.00,,,0.00,WUHU216HW,2013-05-08 03:36:00,
2013-05-07 20:41:00,66.2,52.0,30.26,ESE,113,0.0,0.4,60,0.00,,,0.00,WUHU216HW,2013-05-08 03:41:00,
2013-05-07 20:46:00,66.1,52.3,30.26,ESE,113,0.0,0.0,61,0.00,,,0.00,WUHU216HW,2013-05-08 03:46:00,
2013-05-07 20:51:00,65.9,52.5,30.26,SE,135,0.0,0.0,62,0.00,,,0.00,WUHU216HW,2013-05-08 03:51:00,
2013-05-07 20:56:00,65.7,52.3,30.26,SE,135,0.0,0.0,62,0.00,,,0.00,WUHU216HW,2013-05-08 03:56:00,
2013-05-07 21:01:00,65.5,52.1,30.26,NE,45,0.4,0.4,62,0.00,,,0.00,WUHU216HW,2013-05-08 04:01:00,
2013-05-07 21:06:00,65.2,52.2,30.26,NE,45,0.0,0.4,63,0.00,,,0.00,WUHU216HW,2013-05-08 04:06:00,
2013-05-07 21:11:00,64.8,52.3,30.26,NE,45,0.0,0.4,64,0.00,,,0.00,WUHU216HW,2013-05-08 04:11:00,
2013-05-07 21:16:00,64.6,52.1,30.26,NNE,23,0.0,1.1,64,0.00,,,0.00,WUHU216HW,2013-05-08 04:16:00,
2013-05-07 21:21:00,64.4,51.9,30.26,NNE,23,0.0,1.1,64,0.00,,,0.00,WUHU216HW,2013-05-08 04:21:00,
2013-05-07 21:26:00,64.3,52.2,30.27,NNE,23,0.0,0.0,65,0.00,,,0.00,WUHU216HW,2013-05-08 04:26:00,
2013-05-07 21:31:00,63.9,51.8,30.27,NNE,23,0.0,0.0,65,0.00,,,0.00,WUHU216HW,2013-05-08 04:31:00,
2013-05-07 21:36:00,63.7,51.7,30.27,NNE,23,0.0,0.0,65,0.00,,,0.00,WUHU216HW,2013-05-08 04:36:00,
2013-05-07 21:41:00,63.5,51.6,30.27,NNE,23,0.0,0.0,65,0.00,,,0.00,WUHU216HW,2013-05-08 04:41:00,
2013-05-07 21:46:00,63.2,51.6,30.28,NNE,23,0.0,0.0,66,0.00,,,0.00,WUHU216HW,2013-05-08 04:46:00,
2013-05-07 21:51:00,63.0,51.8,30.28,NNE,23,0.0,0.0,67,0.00,,,0.00,WUHU216HW,2013-05-08 04:51:00,
2013-05-07 21:56:00,62.6,51.5,30.28,NNE,23,0.0,0.0,67,0.00,,,0.00,WUHU216HW,2013-05-08 04:56:00,
2013-05-07 22:01:00,62.5,51.3,30.28,NNE,23,0.0,0.0,67,0.00,,,0.00,WUHU216HW,2013-05-08 05:01:00,
2013-05-07 22:06:00,62.3,51.6,30.28,NNE,23,0.0,0.0,68,0.00,,,0.00,WUHU216HW,2013-05-08 05:06:00,
2013-05-07 22:11:00,62.3,51.6,30.28,NNE,23,0.0,0.0,68,0.00,,,0.00,WUHU216HW,2013-05-08 05:11:00,
2013-05-07 22:16:00,62.1,51.4,30.29,NNE,23,0.0,0.0,68,0.00,,,0.00,WUHU216HW,2013-05-08 05:16:00,
2013-05-07 22:21:00,61.9,51.3,30.29,NNE,23,0.0,0.0,68,0.00,,,0.00,WUHU216HW,2013-05-08 05:21:00,
2013-05-07 22:26:00,61.7,51.5,30.29,NNE,23,0.0,0.0,69,0.00,,,0.00,WUHU216HW,2013-05-08 05:26:00,
2013-05-07 22:31:00,61.6,51.4,30.29,NNE,23,0.4,0.4,69,0.00,,,0.00,WUHU216HW,2013-05-08 05:31:00,
2013-05-07 22:36:00,61.6,51.4,30.29,NNE,23,0.0,0.4,69,0.00,,,0.00,WUHU216HW,2013-05-08 05:36:00,
2013-05-07 22:41:00,61.2,51.0,30.29,East,90,0.0,0.9,69,0.00,,,0.00,WUHU216HW,2013-05-08 05:41:00,
2013-05-07 22:46:00,61.0,50.9,30.30,ENE,68,0.4,0.9,69,0.00,,,0.00,WUHU216HW,2013-05-08 05:46:00,
2013-05-07 22:51:00,60.8,50.7,30.30,ENE,68,0.0,0.4,69,0.00,,,0.00,WUHU216HW,2013-05-08 05:51:00,
2013-05-07 22:56:00,60.8,50.7,30.30,ENE,68,0.0,0.0,69,0.00,,,0.00,WUHU216HW,2013-05-08 05:56:00,
2013-05-07 23:01:00,60.7,50.5,30.30,ENE,68,0.4,0.4,69,0.00,,,0.00,WUHU216HW,2013-05-08 06:01:00,
2013-05-07 23:06:00,60.5,50.3,30.30,SSE,158,0.9,0.9,69,0.00,,,0.00,WUHU216HW,2013-05-08 06:06:00,
2013-05-07 23:11:00,60.3,50.1,30.30,SSE,158,0.0,0.9,69,0.00,,,0.00,WUHU216HW,2013-05-08 06:11:00,
2013-05-07 23:16:00,60.1,51.1,30.31,SSW,203,1.6,2.2,72,0.00,,,0.00,WUHU216HW,2013-05-08 06:16:00,
2013-05-07 23:21:00,60.1,50.8,30.31,SW,225,1.3,2.2,71,0.00,,,0.00,WUHU216HW,2013-05-08 06:21:00,
2013-05-07 23:26:00,59.9,50.2,30.31,SSW,203,0.0,2.0,70,0.00,,,0.00,WUHU216HW,2013-05-08 06:26:00,
2013-05-07 23:31:00,59.9,50.2,30.31,ENE,68,0.0,2.0,70,0.00,,,0.00,WUHU216HW,2013-05-08 06:31:00,
2013-05-07 23:36:00,59.8,50.0,30.32,SSW,203,0.7,1.6,70,0.00,,,0.00,WUHU216HW,2013-05-08 06:36:00,
2013-05-07 23:41:00,59.6,49.9,30.32,South,180,0.0,1.6,70,0.00,,,0.00,WUHU216HW,2013-05-08 06:41:00,
2013-05-07 23:46:00,59.2,49.5,30.32,SSW,203,0.9,1.1,70,0.00,,,0.00,WUHU216HW,2013-05-08 06:46:00,
2013-05-07 23:51:00,59.0,49.7,30.32,SSW,203,0.0,1.1,71,0.00,,,0.00,WUHU216HW,2013-05-08 06:51:00,
2013-05-07 23:56:00,58.9,49.5,30.32,WSW,248,1.1,1.1,71,0.00,,,0.00,WUHU216HW,2013-05-08 06:56:00,